This is the latest recevied weather packets stored in our database for station/object KM4RT-13. If no packets are shown the sender has not sent any weather packets the latest 10 day(s).
| Time | Temp. | Humidity | Pressure | Rain* | Wind** | Luminosity | Snow |
|---|---|---|---|---|---|---|---|
| 1778016691 | 18.33° C | 99% | 1005.2 hPa | 0 mm | - | 54 W/m² | - |
| 1778016387 | 18.33° C | 99% | 1005.1 hPa | 0 mm | - | 50 W/m² | - |
| 1778016085 | 18.33° C | 99% | 1005.5 hPa | 0 mm | - | 49 W/m² | - |
| 1778015782 | 18.33° C | 99% | 1005.4 hPa | 0 mm | - | 44 W/m² | - |
| 1778015479 | 18.33° C | 99% | 1005.5 hPa | 0 mm | - | 33 W/m² | - |
| 1778015175 | 18.33° C | 99% | 1005.4 hPa | 0 mm | - | 38 W/m² | - |
| 1778014872 | 18.33° C | 99% | 1005.5 hPa | 0 mm | - | 44 W/m² | - |
| 1778014570 | 18.33° C | 99% | 1005.5 hPa | 0 mm | - | 47 W/m² | - |
| 1778014268 | 18.33° C | 99% | 1005.6 hPa | 0 mm | - | 51 W/m² | - |
| 1778013964 | 18.33° C | 99% | 1005.6 hPa | 0 mm | - | 58 W/m² | - |
| 1778013662 | 18.33° C | 99% | 1005.5 hPa | 0 mm | - | 58 W/m² | - |
| 1778013358 | 18.33° C | 99% | 1005.6 hPa | 0 mm | - | 59 W/m² | - |
| 1778013056 | 18.33° C | 99% | 1005.5 hPa | 0 mm | - | 62 W/m² | - |
| 1778012751 | 17.78° C | 99% | 1005.3 hPa | 0 mm | - | 66 W/m² | - |
| 1778012447 | 17.78° C | 99% | 1005.4 hPa | 0 mm | - | 78 W/m² | - |
| 1778012144 | 17.78° C | 99% | 1005.6 hPa | 0 mm | - | 91 W/m² | - |
| 1778011842 | 17.78° C | 99% | 1005.7 hPa | 0 mm | - | 116 W/m² | - |
| 1778011540 | 17.78° C | 99% | 1005.6 hPa | 0 mm | - | 117 W/m² | - |
| 1778011237 | 17.78° C | 99% | 1005.6 hPa | 0 mm | - | 109 W/m² | - |
| 1778010933 | 17.78° C | 99% | 1005.6 hPa | 0 mm | - | 138 W/m² | - |
| 1778010630 | 17.78° C | 99% | 1005.7 hPa | 0 mm | - | 128 W/m² | - |
| 1778010327 | 17.22° C | 99% | 1005.8 hPa | 0 mm | - | 149 W/m² | - |
| 1778010023 | 17.22° C | 99% | 1005.8 hPa | 0 mm | - | 171 W/m² | - |
| 1778009720 | 17.22° C | 99% | 1005.9 hPa | 0 mm | - | 153 W/m² | - |
| 1778009417 | 17.22° C | 99% | 1005.8 hPa | 0 mm | - | 104 W/m² | - |
* Rain latest hour (hover to see other rain measurements)
** Current wind speed in m/s (hover to see current wind gust speed)